sat.trackr.live / text

‹ back to catalog

STARLINK-30714

NORAD 57939 · 2023-148E

PAYLOAD ACTIVE UNKNOWN

§ Identity

Operator
Country
US
Launch date
2023-09-25
Launch site
AFWTR
Launch vehicle
Mass (kg)
RCS (m²)

Purposes: comms

External: N2YO · Heavens-Above · Gunter

§ Orbital elements

Epoch: 2026-09-20T12:33:01.677312Z

Period
93.58 min
Inclination
53.1518°
Eccentricity
0.0006308
Mean motion
15.38710758 rev/d
Perigee alt
445.6 km
Apogee alt
454.2 km
Semi-major
6,828.1 km
B*
1.2532e-3
RAAN
196.9651°
Arg perigee
77.6649°
Mean anomaly
282.5061°
Rev number
16,828

§ Raw data

STARLINK-307141 57939U 23148E   26263.52293608  .00048597  00000+0  12532-2 0  99922 57939  53.1518 196.9651 0006308  77.6649 282.5061 15.38710758168285

JSON: /api/v1/satellites/57939 · /tle

For live sub-satellite position, see the globe view (requires WebGL).

§ Visibility from observer

Set your observer location to see the next 7 days of passes ≥ 10°. The values pass through the URL so the page stays shareable.

No JS? Fill the form by hand. The geolocation button needs JavaScript.